This is the latest recevied weather packets stored in our database for station/object K6HFP. If no packets are shown the sender has not sent any weather packets the latest 10 day(s).
| Time | Temp. | Humidity | Pressure | Rain* | Wind** | Luminosity | Snow |
|---|---|---|---|---|---|---|---|
| 1777845011 | 15° C | 73% | 1011.1 hPa | 0 mm | - | 43 W/m² | - |
| 1777844710 | 15° C | 71% | 1010.8 hPa | 0 mm | - | 55 W/m² | - |
| 1777844406 | 15° C | 70% | 1010.7 hPa | 0 mm | - | 74 W/m² | - |
| 1777844105 | 15° C | 70% | 1010.5 hPa | 0 mm | - | 110 W/m² | - |
| 1777843801 | 15.56° C | 68% | 1010.4 hPa | 0 mm | - | 169 W/m² | - |
| 1777843498 | 15.56° C | 68% | 1010.4 hPa | 0 mm | - | 277 W/m² | - |
| 1777843195 | 16.11° C | 68% | 1010.1 hPa | 0 mm | - | 408 W/m² | - |
| 1777842893 | 15.56° C | 69% | 1010.1 hPa | 0 mm | - | 461 W/m² | - |
| 1777842588 | 15.56° C | 68% | 1010.4 hPa | 0 mm | - | 346 W/m² | - |
| 1777842286 | 15.56° C | 68% | 1010.3 hPa | 0 mm | - | 235 W/m² | - |
| 1777841986 | 15.56° C | 68% | 1010.3 hPa | 0 mm | - | 194 W/m² | - |
| 1777841683 | 15.56° C | 68% | 1010.3 hPa | 0 mm | - | 205 W/m² | - |
| 1777841379 | 16.11° C | 67% | 1010.4 hPa | 0 mm | - | 325 W/m² | - |
| 1777841076 | 16.11° C | 66% | 1010.6 hPa | 0 mm | - | 384 W/m² | - |
| 1777840773 | 16.67° C | 67% | 1010.1 hPa | 0 mm | - | 362 W/m² | - |
| 1777840470 | 16.11° C | 71% | 1010.4 hPa | 0 mm | - | 434 W/m² | - |
| 1777840167 | 16.67° C | 69% | 1010.4 hPa | 0 mm | - | 468 W/m² | - |
| 1777839865 | 16.11° C | 69% | 1010.5 hPa | 0 mm | - | 422 W/m² | - |
| 1777839564 | 16.67° C | 70% | 1010.4 hPa | 0 mm | - | 397 W/m² | - |
| 1777839260 | 16.11° C | 71% | 1010.6 hPa | 0 mm | - | 511 W/m² | - |
| 1777838958 | 16.67° C | 70% | 1010.5 hPa | 0 mm | - | 633 W/m² | - |
| 1777838654 | 16.11° C | 71% | 1010.5 hPa | 0 mm | - | 615 W/m² | - |
| 1777838351 | 16.11° C | 69% | 1010.4 hPa | 0 mm | - | 547 W/m² | - |
| 1777838048 | 16.67° C | 68% | 1010.4 hPa | 0 mm | - | 510 W/m² | - |
| 1777837744 | 16.67° C | 67% | 1010.6 hPa | 0 mm | - | 531 W/m² | - |
* Rain latest hour (hover to see other rain measurements)
** Current wind speed in m/s (hover to see current wind gust speed)